Location: Unspecified
(40.7945°N, 111.1337°W)
Time: 02:48:27
(UTC-06:00)

A-11 Canister half - All Passes

Search period start: 24 June 2019 00:00
Search period end: 04 July 2019 00:00
Orbit: 1525 x 1683 km, 47.3° (Epoch: 24 June)

Date Brightness Start Highest point End Pass type
(mag) Time Alt. Az. Time Alt. Az. Time Alt. Az.
24 Jun - 03:56:56 10° SSW 04:05:42 42° SE 04:14:17 10° ENE visible
24 Jun - 06:00:44 10° WSW 06:10:16 81° NNW 06:19:37 10° ENE daylight
24 Jun - 08:06:52 10° W 08:16:06 58° N 08:25:15 10° ENE daylight
24 Jun - 10:12:34 10° WNW 10:21:55 80° NNE 10:31:19 10° ESE daylight
24 Jun - 12:17:55 10° WNW 12:26:28 43° SW 12:35:09 10° SSE daylight
25 Jun - 03:35:26 10° SSW 03:44:08 40° SE 03:52:38 10° ENE visible
25 Jun - 05:39:04 10° WSW 05:48:38 83° NNW 05:58:00 10° ENE daylight
25 Jun - 07:45:11 10° W 07:54:25 58° N 08:03:35 10° ENE daylight
25 Jun - 09:50:57 10° WNW 10:00:18 78° NNE 10:09:40 10° ESE daylight
25 Jun - 11:56:16 10° WNW 12:04:54 45° SW 12:13:39 10° SSE daylight
26 Jun - 03:13:57 10° SSW 03:22:34 38° SE 03:30:57 10° ENE visible
26 Jun - 05:17:25 10° WSW 05:27:00 86° NNW 05:36:22 10° ENE visible
26 Jun - 07:23:29 10° W 07:32:45 59° N 07:41:55 10° ENE daylight
26 Jun - 09:29:18 10° WNW 09:38:39 76° NNE 09:48:00 10° ESE daylight
26 Jun - 11:34:36 10° WNW 11:43:20 47° SW 11:52:09 10° SSE daylight
26 Jun - 13:44:57 10° WSW 13:46:34 11° WSW 13:48:10 10° SW daylight
27 Jun - 02:52:29 10° SSW 03:00:59 36° SE 03:09:16 10° ENE visible
27 Jun - 04:55:46 10° WSW 05:05:22 88° NNW 05:14:45 10° ENE visible
27 Jun - 07:01:47 10° W 07:11:05 59° N 07:20:15 10° ENE daylight
27 Jun - 09:07:39 10° WNW 09:17:01 75° NNE 09:26:20 10° ESE daylight
27 Jun - 11:12:57 10° WNW 11:21:45 50° SW 11:30:38 10° SSE daylight
27 Jun - 13:22:14 10° WSW 13:25:02 12° WSW 13:27:52 10° SW daylight
28 Jun - 02:31:02 10° SSW 02:39:25 35° SE 02:47:36 10° ENE visible
28 Jun - 04:34:06 10° WSW 04:43:44 90° SSE 04:53:08 10° ENE visible
28 Jun - 06:40:06 10° W 06:49:24 59° N 06:58:35 10° ENE daylight
28 Jun - 08:46:01 10° WNW 08:55:22 73° NNE 09:04:41 10° ESE daylight
28 Jun - 10:51:18 10° WNW 11:00:11 52° SW 11:09:07 10° SSE daylight
28 Jun - 12:59:55 10° W 13:03:31 13° WSW 13:07:09 10° SW daylight
29 Jun - 02:09:35 10° S 02:17:51 33° SE 02:25:54 10° ENE visible
29 Jun - 04:12:27 10° WSW 04:22:07 87° SSE 04:31:30 10° ENE visible
29 Jun - 06:18:24 10° W 06:27:45 60° N 06:36:55 10° ENE daylight
29 Jun - 08:24:22 10° WNW 08:33:44 71° NNE 08:43:01 10° ESE daylight
29 Jun - 10:29:39 10° WNW 10:38:36 55° SW 10:47:36 10° SE daylight
29 Jun - 12:37:46 10° W 12:41:59 14° WSW 12:46:14 10° SSW daylight
30 Jun - 01:48:10 10° S 01:56:17 31° SE 02:04:12 10° ENE visible
30 Jun - 03:50:49 10° WSW 04:00:29 85° SSE 04:09:53 10° ENE visible
30 Jun - 05:56:41 10° W 06:06:04 60° N 06:15:16 10° ENE daylight
30 Jun - 08:02:43 10° WNW 08:12:05 70° NNE 08:21:21 10° ESE daylight
30 Jun - 10:08:00 10° WNW 10:17:01 57° SW 10:26:04 10° SE daylight
30 Jun - 12:15:43 10° W 12:20:28 15° SW 12:25:15 10° SSW daylight
01 Jul - 01:26:44 10° S 01:34:43 29° SE 01:42:29 10° ENE visible
01 Jul - 03:29:10 10° SW 03:38:52 82° SSE 03:48:16 10° ENE visible
01 Jul - 05:35:00 10° W 05:44:24 61° N 05:53:37 10° ENE daylight
01 Jul - 07:41:04 10° WNW 07:50:26 68° NNE 07:59:42 10° E daylight
01 Jul - 09:46:21 10° WNW 09:55:26 60° SW 10:04:31 10° SE daylight
01 Jul - 11:53:45 10° W 11:58:56 16° SW 12:04:09 10° SSW daylight
02 Jul - 01:05:21 10° S 01:13:09 28° SE 01:20:45 10° ENE visible
02 Jul - 03:07:32 10° SW 03:17:14 80° SSE 03:26:39 10° ENE visible
02 Jul - 05:13:17 10° W 05:22:44 61° N 05:31:58 10° ENE visible
02 Jul - 07:19:24 10° WNW 07:28:46 67° NNE 07:38:02 10° E daylight
02 Jul - 09:24:43 10° WNW 09:33:51 62° SW 09:42:58 10° SE daylight
02 Jul - 11:31:50 10° W 11:37:24 18° SW 11:43:01 10° SSW daylight
03 Jul - 00:43:59 10° S 00:51:35 26° SE 00:59:01 10° ENE visible
03 Jul - 02:45:54 10° SW 02:55:37 77° SSE 03:05:02 10° ENE visible
03 Jul - 04:51:34 10° W 05:01:04 62° N 05:10:19 10° ENE visible
03 Jul - 06:57:44 10° WNW 07:07:07 66° NNE 07:16:22 10° E daylight
03 Jul - 09:03:04 10° WNW 09:12:16 65° SW 09:21:25 10° SE daylight
03 Jul - 11:09:57 10° W 11:15:52 19° SW 11:21:50 10° SSW daylight
